Regional Weather Roundup
Issued by NWS

Home | Current Version | Previous Version | Graphics & Text | Print | Product List | Glossary On
Versions: 1 2 3 4 5 6 7 8 9 10 11 12 13 14 15 16 17 18 19 20 21 22 23 24 25 26 27 28 29 30 31 32 33 34 35 36 37 38 39 40 41 42 43 44 45 46 47 48 49 50
000
ASUS43 KOAX 052302
RWRNE

WEATHER ROUNDUP FOR NEBRASKA
NATIONAL WEATHER SERVICE OMAHA NE
500 PM CST THU MAR 05 2015

NOTES: SATELLITE DATA IS BEING USED TO AUGMENT CLOUD COVER ABOVE
       12000 FEET.
       "FAIR" INDICATES FEW OR NO CLOUDS BELOW 12,000 FEET WITH NO
       SIGNIFICANT WEATHER AND/OR OBSTRUCTIONS TO VISIBILITY.

  * THESE STATIONS DO NOT REPORT WEATHER SUCH AS RAIN...SNOW OR FOG.

NEZ001>004-019>022-054>056-060000-
NEBRASKA PANHANDLE

CITY           SKY/WX    TMP DP  RH WIND       PRES   REMARKS
SCOTTSBLUFF    SUNNY     45  14  28 W18       30.19R
ALLIANCE       SUNNY     45  11  25 W20       30.15R
CHADRON        SUNNY     41  23  48 W16       30.16S
KIMBALL        PTSUNNY   40  16  37 NW20G26   30.18R WCI  31
SIDNEY         MOSUNNY   43  14  31 W18G25    30.19S
$$

NEZ057>060-069>072-079>082-060000-
SOUTHWEST NEBRASKA

CITY           SKY/WX    TMP DP  RH WIND       PRES   REMARKS
NORTH PLATTE   MOSUNNY   49   6  17 W13       30.17F
IMPERIAL         N/A     47  12  24 W16G24    30.19S
LEXINGTON      PTSUNNY   46  10  23 SW14      30.21F
MCCOOK         PTSUNNY   50  10  20 W14       30.20S
$$

NEZ005>010-023>029-035>040-094-060000-
NORTH CENTRAL NEBRASKA

CITY           SKY/WX    TMP DP  RH WIND       PRES   REMARKS
VALENTINE      PTSUNNY   45   9  23 W13       30.14S
AINSWORTH      CLOUDY    44   8  23 W9G20     30.15S
BROKEN BOW     SUNNY     45  13  27 SW15      30.19F
ORD            SUNNY     41   8  25 S13       30.21F
$$

NEZ041-046>049-061>064-073>077-083>087-060000-
SOUTH CENTRAL NEBRASKA

CITY           SKY/WX    TMP DP  RH WIND       PRES   REMARKS
GRAND ISLAND   MOSUNNY   39   7  26 SW15      30.29F WCI  31
AURORA         SUNNY     38   7  27 S12       30.30S WCI  30
HASTINGS       MOSUNNY   40   2  20 S10G17    30.28F WCI  33
HEBRON         SUNNY     38   1  20 S7        30.36S WCI  33
HOLDREGE       PTSUNNY   43   7  22 SW9       30.24F
KEARNEY *      PTSUNNY   41  10  28 S9        30.26S
$$

NEZ011>018-030>034-042>045-060000-
NORTHEAST NEBRASKA

CITY           SKY/WX    TMP DP  RH WIND       PRES   REMARKS
NORFOLK        SUNNY     35   6  29 S16       30.29S WCI  25
ALBION         SUNNY     38   6  26 SW12      30.27S WCI  30
BLAIR          SUNNY     32   5  31 S14       30.38S WCI  22
COLUMBUS *     SUNNY     36   7  30 S15       30.34S WCI  26
FREMONT        SUNNY     33   5  30 S12G20    30.37F WCI  25
TEKAMAH        SUNNY     32   5  32 S17       30.39F WCI  21
WAYNE          SUNNY     35   4  27 S15       30.31F WCI  25
$$

NEZ050>053-065>068-078-088>093-060000-
SOUTHEAST NEBRASKA

CITY           SKY/WX    TMP DP  RH WIND       PRES   REMARKS
LINCOLN        SUNNY     35   6  29 S13       30.39F WCI  26
OMAHA EPPLEY   MOSUNNY   30   5  34 S12       30.42F WCI  20
BEATRICE       SUNNY     35   7  30 S10       30.39S WCI  27
FALLS CITY     SUNNY     32   4  30 S8        30.45F WCI  25
NEBRASKA CITY  SUNNY     32  -4  21 SW12      30.42F WCI  23
$$

NEZ044-045-051>053-067-060000-
OMAHA AREA

CITY           SKY/WX    TMP DP  RH WIND       PRES   REMARKS
OMAHA EPPLEY   MOSUNNY   30   5  34 S12       30.42F WCI  20
BLAIR          SUNNY     32   5  31 S14       30.38S WCI  22
FREMONT        SUNNY     33   5  30 S12G20    30.37F WCI  25
OFFUTT AFB     SUNNY     31   4  32 S10       30.40F WCI  22
WAHOO          FAIR      34   2  26 S12G17    30.38F WCI  25
$$



USA.gov is the U.S. government's official web portal to all federal, state and local government web resources and services.